Location: Unspecified
(52.4361°N, 0.0000°E)
Time: 23:39:18
(UTC+00:00)

N. Korean satellite - Visible Passes

Search period start: 15 October 2019 00:00
Search period end: 25 October 2019 00:00
Orbit: 455 x 508 km, 97.2° (Epoch: 14 October)

Date Brightness Start Highest point End Pass type
(mag) Time Alt. Az. Time Alt. Az. Time Alt. Az.
15 Oct 9.2 05:20:53 10° NE 05:23:54 25° E 05:26:56 10° SSE visible
16 Oct 10.1 04:56:22 10° NE 04:58:24 14° E 05:00:27 10° SE visible
17 Oct 10.4 18:20:20 10° WSW 18:21:31 11° W 18:22:42 10° WNW visible
18 Oct 8.3 05:38:07 10° NNE 05:41:30 39° E 05:44:55 10° SSE visible
18 Oct 9.6 17:53:20 10° SW 17:55:58 20° W 17:58:38 10° NW visible
19 Oct 9.5 05:13:13 10° NE 05:16:04 22° E 05:18:56 10° SE visible
19 Oct 8.3 17:27:17 10° SSW 17:30:30 37° W 17:33:46 10° NNW visible
20 Oct 10.3 04:48:58 10° ENE 04:50:32 12° E 04:52:06 10° ESE visible
21 Oct 7.2 05:55:28 10° NNE 05:59:03 62° E 06:02:41 10° S visible
21 Oct 10.1 18:11:46 10° WSW 18:13:36 14° W 18:15:27 10° WNW visible
22 Oct 8.7 05:30:21 10° NNE 05:33:40 32° E 05:36:59 10° SSE visible
22 Oct 9.2 17:45:11 10° SSW 17:48:03 24° W 17:50:59 10° NW visible
23 Oct 9.8 05:05:33 10° NE 05:08:11 19° E 05:10:49 10° SE visible
23 Oct 7.8 17:19:17 10° S 17:22:37 46° W 17:26:00 10° NNW visible
24 Oct 10.5 04:41:52 10° ENE 04:42:37 10° E 04:43:22 10° E visible
